GFSSGP_con_3kmhel_000.txt.gz
Helicity
39 40 30 39 2 -33 -128 -28 -52 -78 -40 31 52 -42 -15 35 -24 -50 22 14 3 -12 -2 -24 -35 -34 -31 -25 -24 -25 -25 -17 -23 -23 -22 -25 -20 -19 -19 -17 -14 -8 3 8 8 14 13 10 1
3 25 21 36 -33 -52 -36 28 -21 -20 -11 3 -5 24 35 10 110 -14 -23 -9 -12 -22 -23 -10 -32 -17 -18 -24 -23 -18 -14 -14 -26 -22 -23 -14 -7 -6 -5 5 9 10 9 13 12 10 17 17 21
-4 35 64 12 -83 -68 13 37 68 57 49 53 5 -22 43 15 40 -2 -22 -23 -19 -30 -32 -15 -21 -13 -11 -16 -14 -13 -11 -10 -10 -10 -1 4 3 7 18 24 21 22 21 24 27 24 29 25 26
16 -2 59 -92 -94 -7 12 122 169 97 69 33 6 62 105 23 10 -16 -17 -24 -21 -25 -29 -22 -12 -7 -6 -11 -10 -8 -2 -4 -5 -2 1 10 17 25 27 26 25 25 30 36 39 39 39 34 34
19 16 -7 -83 1 69 60 88 102 61 -11 18 21 -6 -15 -0 -12 13 -2 -21 -13 -26 -24 -21 -9 -1 3 5 5 2 5 6 3 2 9 13 19 27 34 37 39 43 39 36 33 36 42 41 35
25 51 126 52 40 21 87 170 191 113 117 66 118 95 -26 5 6 -12 -10 -16 -13 -13 -20 -13 -2 6 10 14 12 8 12 7 7 11 13 14 23 28 31 35 39 36 34 34 34 37 46 43 39
44 48 145 106 82 138 149 180 88 71 49 32 78 102 -3 -2 -8 -9 -6 -16 -15 -18 -22 -21 -14 -2 10 16 14 13 11 16 20 19 17 29 30 27 31 40 38 37 42 40 39 38 43 40 34
58 -17 22 26 65 26 63 15 91 10 -10 33 87 84 -15 -2 -14 -14 -8 -17 -11 -18 -21 -25 -23 -18 -8 8 30 28 22 22 23 25 27 28 25 19 23 23 29 34 48 41 38 39 48 45 29
71 140 81 -12 51 29 -14 86 18 14 -2 30 46 132 13 -25 -29 -12 -15 -19 -14 -21 -22 -23 -27 -23 -21 -21 1 28 34 27 23 13 13 11 14 22 7 11 9 19 35 42 27 32 27 40 9
106 168 192 -38 -16 77 -1 81 72 37 11 69 90 113 73 46 31 40 14 3 -16 -12 -14 -24 -27 -25 -16 -12 -30 -26 -11 -13 -12 -9 -7 -4 3 18 1 31 51 40 45 59 35 28 24 17 12
85 149 55 -46 19 160 127 111 73 148 139 162 179 127 109 92 95 78 40 13 9 -1 -15 -17 -18 -19 -10 -25 -25 -26 -23 -12 -22 -4 6 -0 -0 24 44 31 31 25 25 29 26 23 25 25 22
-15 47 50 -67 11 89 36 140 176 90 58 35 168 176 131 117 83 95 69 59 43 33 3 12 -6 -4 -22 -15 -23 -23 -24 -33 -30 -12 -1 16 23 28 32 30 48 39 41 35 39 33 27 24 32
-76 11 -6 -28 15 52 31 113 279 187 89 60 157 168 161 111 85 74 104 81 49 32 24 21 15 -18 -26 6 7 -1 -1 -5 12 1 16 41 58 41 33 21 17 48 60 34 24 34 39 41 45
-12 65 44 99 117 49 108 104 158 117 85 69 104 115 106 95 78 61 83 88 70 55 47 31 43 19 -11 25 14 10 9 4 35 41 25 63 69 71 36 15 23 5 32 24 10 -1 -9 -19 -11
145 99 69 78 69 62 203 75 188 168 94 56 58 52 46 53 100 112 131 97 61 73 75 51 62 49 32 23 35 42 65 57 48 49 75 52 56 70 52 33 24 1 3 2 -4 -24 -43 -35 -47
30 114 102 -13 197 60 103 98 179 216 161 70 42 16 10 10 52 117 132 114 55 79 80 57 50 61 48 49 55 33 27 30 40 43 55 38 41 44 44 29 -0 -3 6 13 11 -11 -14 -19 -30
96 78 166 64 51 149 82 115 139 190 158 101 63 44 34 15 49 104 147 117 61 105 76 59 44 43 38 30 27 23 25 23 38 51 29 9 9 34 75 39 7 17 33 25 40 25 13 3 3
-69 53 153 201 110 189 228 127 140 109 104 67 56 47 72 102 122 134 112 91 58 43 75 85 65 41 27 18 5 -3 -9 -16 -4 2 -9 -1 22 53 65 51 47 59 54 44 50 49 42 41 18
65 84 77 150 242 305 248 191 117 98 51 21 10 38 124 205 171 159 139 109 76 57 78 74 91 56 77 48 43 37 35 24 11 6 16 36 45 63 67 73 67 85 83 71 71 68 52 44 42
-2 -43 51 106 185 276 235 207 94 153 60 57 63 79 143 184 181 172 172 179 147 89 73 46 48 55 71 75 70 74 76 68 84 83 76 67 63 58 46 50 54 58 64 67 64 58 57 54 37
-21 -22 15 192 229 212 281 143 147 82 69 50 98 158 204 274 192 160 147 151 104 63 39 16 27 58 50 60 67 63 67 75 80 61 101 85 62 42 55 61 64 72 87 88 72 64 65 61 56
28 77 8 149 266 217 246 165 80 141 130 122 201 214 200 267 249 187 134 88 51 26 17 38 36 35 16 47 57 54 53 76 106 136 134 101 68 42 50 39 48 75 82 79 67 66 70 71 66
79 100 82 127 149 310 177 200 120 206 129 205 259 242 253 334 354 264 189 157 54 62 42 44 24 15 -1 32 42 67 49 55 100 156 161 102 60 58 64 72 82 81 71 55 55 57 63 63 71
112 60 100 107 217 211 155 164 187 234 163 169 197 256 291 282 406 337 232 189 135 78 69 52 41 17 26 57 81 129 97 81 108 117 109 95 92 88 112 117 89 67 58 51 44 52 57 57 59
68 70 87 38 113 128 119 151 56 134 135 156 212 252 265 348 447 453 302 264 241 175 140 99 85 68 93 129 111 81 59 41 47 37 66 107 139 107 102 109 78 70 48 39 48 64 58 50 60
38 84 96 46 8 28 62 62 20 220 154 115 126 265 208 363 495 561 426 398 375 279 215 189 167 139 156 153 108 74 80 51 37 16 18 55 87 120 107 77 68 63 40 38 32 51 52 58 57
33 104 80 123 113 30 12 66 39 155 115 117 177 180 239 348 415 529 501 458 426 361 292 294 277 244 206 178 160 134 119 98 68 57 66 60 73 123 106 90 77 66 63 59 56 54 56 70 70
139 121 177 129 84 65 42 45 100 168 106 73 74 160 259 279 381 433 460 453 446 457 413 332 349 341 275 250 240 191 169 139 105 90 71 74 55 70 80 74 71 66 67 62 73 67 63 82 83
219 207 177 142 151 74 34 -8 58 73 95 153 53 36 252 344 383 381 388 422 453 424 433 411 392 377 343 345 312 240 214 138 110 83 73 58 50 57 71 64 61 51 47 52 67 61 56 70 65
182 90 161 205 206 166 80 46 54 51 70 113 2 7 119 273 324 346 324 419 507 502 541 512 455 404 387 392 341 271 246 149 111 105 89 76 68 77 66 55 49 40 41 56 69 64 64 78 62

GFSSGP_con_3kmhel_006.txt.gz
Helicity
50 65 27 38 16 25 33 8 29 32 23 55 48 16 -20 32 30 -59 53 49 38 53 31 -2 0 -2 2 2 2 3 -8 -12 -8 -3 -5 2 1 0 4 7 13 14 15 21 25 29 30 23 -14
64 60 27 72 -21 -4 14 17 -15 39 38 -12 0 -37 19 -16 62 7 25 43 34 35 23 0 6 9 7 16 15 8 10 1 -1 2 4 6 8 6 9 11 9 13 23 22 14 12 3 1 -9
28 13 55 64 82 -27 -94 8 44 18 19 4 16 25 51 61 48 44 22 20 29 27 10 6 8 16 22 24 19 14 7 1 5 2 1 1 2 5 5 7 15 25 22 15 15 13 -4 -9 -7
-3 -10 25 -28 -75 -40 -102 13 81 41 18 -13 5 49 99 36 41 24 0 5 2 7 1 1 8 10 9 10 7 1 -2 -12 -12 -12 -7 -7 -2 6 5 9 13 15 11 14 16 13 6 -7 -3
11 2 -8 -45 -81 -63 -100 -26 72 28 31 17 53 19 52 47 21 -14 -14 -21 -14 -3 -3 -8 0 -7 -5 -3 -4 -17 -23 -25 -18 -5 4 4 10 10 10 11 8 8 13 18 18 16 7 16 10
-5 -1 25 -67 -9 -10 -18 46 -15 21 17 9 48 63 35 -42 -6 -35 -27 -35 -29 -21 -17 -25 -16 -11 -3 -6 -9 -14 -9 -2 3 4 6 13 14 18 21 21 19 15 19 22 14 15 12 19 24
42 30 93 60 58 39 -3 45 22 -10 40 33 89 67 3 -36 -31 -32 -46 -55 -62 -54 -50 -53 -47 -23 -3 -2 4 3 4 6 7 10 15 13 11 15 28 36 30 26 26 23 20 21 18 19 15
17 -1 33 61 97 60 9 3 13 15 4 64 83 72 24 -53 -19 -2 -19 -42 -61 -51 -52 -46 -40 -40 -35 -29 3 7 4 8 12 14 12 14 21 28 34 33 30 25 34 33 33 16 4 -5 -13
32 12 41 75 148 81 52 25 -1 -16 5 51 30 53 -3 30 19 15 -8 -46 -57 -47 -50 -35 -27 -27 -27 -27 -17 -10 -4 -2 -1 -1 12 10 3 7 13 11 32 24 23 13 9 1 -2 12 20
-3 40 45 27 91 127 114 64 63 -17 25 12 11 64 138 85 56 60 34 8 -19 -25 -27 -26 -24 -21 -28 -26 -28 -19 -22 -20 -11 -8 -7 -6 8 0 16 4 23 26 7 5 3 7 21 21 10
24 157 71 12 76 151 123 65 48 28 -14 3 125 171 198 113 50 43 24 26 22 -13 -13 -20 -27 -21 -22 -21 -24 -21 -17 -16 -11 -7 -8 -11 -8 -10 0 -1 1 2 1 20 22 20 27 26 21
79 94 57 27 58 186 200 87 15 56 6 19 103 229 191 141 78 42 32 8 22 6 -14 -26 -20 -13 -16 -26 -24 -28 -13 -18 -15 -5 4 7 1 -1 4 2 1 -10 -6 16 16 14 5 8 -30
42 85 27 61 96 200 198 123 15 -9 -18 52 116 188 143 95 57 16 20 8 23 31 5 -18 -18 -15 -12 -26 -35 -32 -16 -10 -10 -1 9 8 15 0 -19 -18 -24 -22 -9 -7 0 11 1 -13 -25
-27 7 6 30 42 156 216 133 72 -15 38 66 110 121 96 74 25 1 7 9 16 13 12 -15 -10 -13 -20 -29 -31 -28 -19 -5 9 10 19 33 12 -1 -3 -7 -12 -5 -6 -8 -15 -21 -27 -36 -33
28 87 133 109 108 99 159 159 84 102 67 75 74 56 49 24 23 31 13 10 6 21 12 4 6 -9 2 3 -17 -12 -4 -1 9 15 23 17 21 23 16 9 -3 1 1 0 -11 -13 -14 -18 -13
79 107 68 90 112 50 41 107 42 235 194 108 57 22 34 20 17 2 -12 -2 10 2 24 5 -2 -8 -18 11 -2 -10 -17 -6 -8 -2 2 9 6 19 20 21 5 23 22 20 21 47 46 63 49
107 51 2 72 57 97 68 52 107 234 238 152 94 53 18 3 -11 -16 0 13 33 41 21 27 32 4 -13 -2 11 8 5 -4 -5 -1 10 24 20 17 27 36 39 44 42 57 73 96 87 67 57
48 32 69 22 88 121 154 44 186 180 237 229 90 68 55 26 42 11 9 24 42 49 30 38 26 22 11 14 14 -4 -23 -5 20 20 17 27 25 33 40 36 31 58 61 63 70 64 55 45 44
79 53 161 -35 67 96 91 79 168 155 171 212 157 66 65 66 26 33 17 46 48 28 27 43 41 39 45 61 59 42 43 37 34 40 41 57 63 64 59 37 45 74 70 74 70 59 51 62 40
67 80 71 62 30 92 71 51 119 137 133 158 137 87 90 40 24 25 14 31 42 64 59 64 62 65 94 105 97 82 94 75 69 71 74 66 62 79 74 72 64 61 64 59 51 60 74 56 52
100 78 56 72 190 215 189 110 133 81 48 41 11 19 36 53 45 19 27 51 51 58 77 85 97 86 64 74 69 50 33 21 40 62 58 60 77 80 77 62 54 63 63 65 61 62 65 62 51
147 80 107 113 137 66 218 40 69 168 120 94 30 74 4 -6 2 26 25 10 35 51 41 67 68 29 7 40 55 75 67 47 5 9 13 42 56 69 73 74 67 58 59 62 58 56 56 60 61
107 143 148 112 122 151 164 161 75 151 116 122 127 123 41 39 34 12 34 51 56 32 29 17 -3 -45 -22 -11 14 40 4 -15 -42 -27 -14 30 46 53 74 78 81 77 79 68 63 57 59 59 60
64 149 215 177 151 80 14 175 72 201 218 182 191 137 112 72 65 45 65 78 40 54 45 17 -20 -76 -36 -30 -14 23 12 -7 0 10 24 56 30 23 47 78 96 101 97 82 58 42 41 50 58
166 146 126 116 153 14 85 171 96 92 170 206 312 340 237 146 129 106 105 78 73 75 53 27 -2 -63 -23 0 1 32 46 47 46 65 103 104 76 55 53 108 128 110 98 82 63 51 45 49 61
91 113 91 87 89 65 131 75 34 144 57 21 127 231 251 228 208 176 161 142 111 97 53 45 21 -4 24 51 23 39 55 54 48 72 85 102 82 61 90 106 116 96 101 88 74 66 62 66 60
112 67 65 131 93 91 87 76 95 41 10 52 112 204 205 232 272 263 210 212 167 128 120 118 83 48 85 102 62 78 73 82 90 96 99 92 74 73 89 110 118 95 90 83 84 68 67 75 71
79 66 129 218 151 107 137 146 95 70 -8 89 33 209 159 180 204 254 266 264 244 206 179 143 119 126 150 168 160 164 147 142 135 150 110 102 90 89 105 109 96 87 73 77 84 68 62 63 58
216 175 154 102 171 146 128 135 86 45 41 58 57 155 166 158 174 281 295 301 312 277 239 216 182 180 166 191 228 257 256 190 214 188 146 129 126 118 118 114 97 82 69 67 76 69 63 75 68
133 124 123 158 173 153 141 148 49 49 115 69 38 67 78 119 144 256 284 305 273 236 245 265 248 236 250 222 248 289 263 305 240 203 179 146 141 145 127 111 98 83 67 62 72 69 67 66 63

GFSSGP_con_3kmhel_009.txt.gz
Helicity
77 140 134 96 48 1 -8 23 28 44 22 45 -8 -18 -39 20 45 -29 35 44 35 37 27 23 16 17 11 5 12 4 -2 -10 -1 -10 -10 -4 3 7 12 -4 -10 -12 4 3 -8 -17 -21 -19 -12
75 38 90 103 0 -10 8 4 12 54 -5 -31 -8 -1 19 5 56 5 -16 6 19 16 22 22 15 17 15 9 9 0 -3 0 -5 -14 -5 8 10 12 10 2 -11 -5 -4 -17 -13 -14 -17 -12 -7
40 19 42 119 88 48 4 28 30 7 17 20 12 26 31 24 4 12 2 8 23 19 15 18 13 12 9 5 -2 -4 -15 -16 -18 -9 5 11 11 5 -1 -3 1 1 -14 -14 -8 -15 -12 -8 1
20 23 35 17 -5 -33 -53 32 47 6 17 10 0 24 56 25 29 28 17 23 16 13 9 2 11 1 -3 -5 2 -9 -21 -21 -15 -2 -1 0 3 8 6 7 7 -1 -1 -2 -2 -9 -6 3 2
-5 31 -48 -63 -41 -31 -50 -14 39 23 20 14 50 3 17 39 17 -17 12 0 -17 -18 0 -12 -3 2 7 4 -8 -18 -11 3 -1 3 1 3 8 11 12 9 6 -1 -2 -1 -8 -2 5 13 5
0 16 34 -27 -54 -50 -42 75 3 5 15 22 18 32 21 -7 -40 -23 -21 -22 -31 -19 -21 -21 -8 4 4 3 -6 -4 -1 0 3 1 4 5 9 14 10 3 -8 -3 -3 -2 -2 8 7 10 19
19 18 18 27 23 53 47 64 -49 -40 -3 23 54 37 0 -23 -34 -30 -26 -27 -34 -32 -35 -35 -18 -2 6 -2 -5 -4 1 5 6 12 15 22 24 21 12 17 9 11 9 9 15 10 12 8 6
13 18 23 27 76 52 50 35 22 33 3 11 37 58 22 -9 -26 -22 -23 -27 -37 -37 -32 -23 -9 -7 -15 -12 -3 -4 -4 -4 2 6 5 11 10 13 16 12 20 16 20 16 9 -2 5 2 5
-10 41 36 38 72 67 95 51 2 -3 20 39 28 11 17 30 0 -5 -6 -25 -36 -39 -32 -19 -14 -12 -7 -8 -9 -12 -15 -6 -3 -8 -1 1 0 4 5 -14 8 10 11 9 3 4 12 15 23
-3 -2 57 44 70 80 106 77 53 2 36 34 9 -11 67 81 39 43 37 10 -6 -5 -8 -11 -8 -6 -6 -10 -11 -11 -6 -5 -1 -2 1 -2 -2 -7 2 5 1 10 5 -1 0 9 23 20 17
18 84 22 43 28 84 94 90 30 18 47 80 97 94 142 110 58 35 27 12 8 2 -4 -4 -6 -4 -7 -13 -20 -20 -16 -9 -5 2 3 -4 -5 -6 0 -3 -6 -5 -2 2 9 7 8 9 19
51 69 87 53 72 111 142 94 33 50 14 47 73 146 148 108 67 37 30 20 15 4 -1 -4 -3 -4 -7 -15 -14 -12 -8 -4 -3 -6 -5 -3 -1 1 -1 -8 -10 -11 -10 0 -2 -1 4 -6 -17
67 68 72 62 69 59 122 110 32 8 -4 15 90 137 173 104 65 27 17 16 15 18 11 5 -1 0 -6 -3 -7 -6 -9 -5 -2 -2 -3 -7 -3 -2 5 -1 -4 -12 -12 -12 -2 -4 -9 -21 -22
6 1 28 31 48 75 122 69 24 -22 -33 8 81 100 107 94 62 24 20 21 25 14 16 10 7 3 0 -7 -3 -4 -8 -4 0 3 2 18 12 1 1 10 0 -1 -7 -11 -9 -4 -13 -18 -24
18 24 72 16 87 4 130 82 97 -11 -16 2 12 28 54 50 42 45 40 34 22 22 10 27 16 8 11 10 -12 -12 -10 3 5 0 11 23 15 19 8 16 9 14 11 -2 -4 3 20 19 4
22 29 -4 11 31 10 93 147 100 58 74 28 21 -1 17 41 58 33 17 13 7 -2 13 6 3 14 7 6 -2 -10 -10 -7 -5 -11 -12 12 23 13 20 9 13 23 34 32 27 36 48 60 57
43 -85 3 -45 -4 12 82 65 78 136 130 95 50 35 1 12 4 15 14 2 8 19 5 12 16 15 7 2 0 5 1 -11 -23 -22 -19 -20 -21 4 21 10 16 29 38 51 55 70 61 61 50
-52 13 -42 -36 8 -10 88 59 -28 117 168 146 76 39 6 13 23 7 -3 -10 -2 6 -1 -1 11 13 8 3 -1 -7 -7 -12 -9 -9 -14 0 10 18 7 13 35 50 54 82 70 55 41 35 30
-11 11 -1 38 48 60 53 40 -19 89 123 126 126 54 33 21 12 -12 -14 -21 -26 -18 -9 -10 15 21 1 12 16 9 10 5 4 -4 7 10 18 28 34 28 31 54 61 60 49 41 35 36 28
-27 -18 -41 58 80 36 38 71 16 71 149 132 135 96 32 -3 -20 -21 -20 -10 -5 -16 -5 -4 8 24 25 29 26 21 22 18 16 12 14 20 37 30 30 52 57 59 52 49 49 46 37 27 24
27 -14 -46 11 130 156 42 55 91 79 62 91 68 39 1 5 38 34 22 13 -2 -8 -10 -4 15 26 7 3 -22 -18 -19 -15 -23 -10 10 26 19 23 40 51 50 51 50 58 57 45 40 37 33
38 45 20 68 76 57 67 84 31 138 126 131 85 71 47 27 8 10 32 29 14 -1 -14 -10 -4 -9 -35 -19 -16 15 11 -1 -32 -37 -41 -35 -15 16 30 36 38 57 58 56 50 41 35 29 24
85 67 76 68 67 88 40 36 32 55 65 132 142 92 42 36 35 13 14 12 12 -17 -38 -32 -28 -53 -60 -43 -22 -20 -38 -58 -76 -61 -38 -18 2 14 26 38 52 54 55 58 48 45 35 33 26
138 140 144 173 131 62 40 25 -9 62 109 141 163 146 77 25 32 -9 -24 -24 -36 -35 -37 -49 -36 -53 -65 -74 -58 -50 -46 -38 -36 -23 -11 6 34 67 65 73 63 57 58 72 63 53 45 34 32
132 111 150 130 155 92 86 42 22 8 101 148 107 218 208 82 31 21 8 -8 -32 -29 -22 -24 -26 -64 -72 -81 -88 -64 -34 -12 -6 4 3 17 51 57 65 80 81 80 62 75 70 61 48 43 40
144 82 180 139 139 80 134 67 -72 -7 -11 51 20 93 112 164 89 40 34 26 5 -4 -7 -14 -20 -41 -57 -55 -54 -32 -12 -8 9 22 28 38 47 64 80 86 84 100 96 97 86 65 51 58 57
255 215 108 124 191 133 98 86 63 40 8 31 47 68 126 117 139 107 72 37 42 27 26 43 14 -12 -17 -23 -9 8 4 15 28 49 52 61 75 89 98 99 106 110 124 110 99 84 75 69 68
194 136 149 183 111 75 98 96 63 60 28 16 27 102 108 150 106 132 137 103 56 43 33 43 42 25 23 20 34 59 54 39 52 90 92 74 95 115 125 116 103 107 118 108 87 83 76 70 70
202 203 225 187 192 117 63 32 58 27 30 34 25 103 100 187 120 114 181 118 115 89 64 69 63 53 27 45 73 99 102 101 89 66 174 184 115 146 134 135 109 112 101 106 87 60 51 50 50
159 90 86 186 193 204 162 92 105 15 -16 29 14 36 68 143 119 79 120 96 47 38 38 61 94 106 115 127 107 146 189 158 224 255 164 125 203 122 141 134 119 119 100 107 83 56 33 46 47

GFSSGP_con_3kmhel_015.txt.gz
Helicity
223 141 39 27 -40 59 0 -2 46 -5 11 15 14 14 -32 47 -1 -9 -44 -28 -30 -27 -45 -44 -59 -45 -59 15 22 30 35 36 41 35 32 32 31 20 21 21 12 11 9 3 -4 -10 -9 -10 -5
179 128 205 102 -33 -57 -1 66 5 -17 45 7 -6 25 34 13 51 -24 -55 -44 -6 -14 -8 -24 3 -6 -19 -6 8 -14 -30 3 14 19 22 22 20 11 19 12 7 6 1 -3 -6 -7 -6 -6 -3
136 152 183 85 20 15 40 -9 30 15 -6 -3 -1 52 38 3 18 -23 -24 -36 -14 4 -7 -39 -8 -15 -10 -4 -35 -30 -41 -36 -10 17 18 9 4 9 6 4 9 5 -5 -6 -6 -2 1 -3 -4
73 97 81 42 36 16 21 45 4 -9 10 22 28 28 28 24 -3 4 -2 -27 -24 -30 -29 -21 -17 -21 -19 -23 -26 -25 -36 -37 -29 -1 -7 -1 8 9 9 6 7 4 -20 -11 0 7 6 1 -4
79 92 108 -4 -5 11 26 23 -11 -9 9 -6 41 35 30 6 29 -2 11 -27 -25 -30 -15 -12 -21 -23 -23 -22 -29 -31 -39 -39 -42 -35 -24 -4 8 5 10 16 2 -20 -12 -3 9 16 16 1 -6
64 34 57 57 20 4 19 -14 -5 34 34 8 73 22 33 0 0 1 1 -12 -15 -4 -6 -17 -27 -26 -30 -24 -28 -35 -36 -39 -23 -17 -11 8 5 -5 18 17 8 -16 -6 11 13 15 18 9 -5
60 25 45 39 23 12 11 -5 -9 21 16 16 21 39 23 12 -3 4 13 -8 -16 -11 -4 -15 -20 -32 -42 -27 -24 -23 -19 -3 9 4 10 10 12 13 9 14 13 4 -1 6 5 5 7 5 -7
42 41 30 58 7 58 19 -13 33 13 33 38 -7 27 34 39 -7 -14 29 -3 -12 -21 1 -11 -16 -21 -20 -22 -13 -3 3 7 9 11 10 19 25 23 31 25 22 7 0 -3 1 20 22 30 36
39 22 20 7 91 21 12 30 -3 37 40 -1 23 59 68 43 6 -3 -15 45 -22 0 -18 -14 -1 -15 -19 -17 -15 -5 2 6 8 16 20 32 29 45 42 41 23 7 18 16 21 30 40 26 30
10 186 105 32 43 34 6 28 25 8 35 34 17 94 103 46 29 15 0 13 17 -15 -10 8 67 -14 -10 -11 -9 1 5 10 12 20 20 21 -10 -15 -5 18 8 11 24 22 17 34 30 33 32
42 151 266 17 31 26 37 20 25 8 18 42 42 65 57 42 26 7 4 10 7 3 22 67 9 -23 -2 11 -16 -14 0 6 8 4 -4 8 -14 10 3 41 35 38 43 56 7 50 36 12 -12
29 14 7 25 43 17 51 31 21 -7 37 40 35 49 47 32 22 11 -5 3 15 14 -2 -16 4 -11 -3 -9 -8 3 2 1 0 13 5 8 -3 9 -10 -30 4 -7 -18 -3 -8 13 -28 -10 -6
-1 28 6 6 43 -22 32 34 38 13 16 31 52 45 26 20 19 7 -5 -8 -2 1 -7 -4 17 1 -13 -11 -6 -13 -17 -5 -2 -10 4 -5 5 -31 -12 -12 -8 -10 -8 -32 -18 -8 -14 23 -3
2 11 24 11 34 5 -2 56 27 43 12 54 69 33 17 15 17 6 -6 -6 -10 -2 2 -1 17 10 -5 -11 4 -15 -27 -26 -13 -20 -4 -11 -6 -33 -29 12 -3 2 -11 -36 -4 -13 -40 -22 -14
33 -1 21 1 28 24 -27 34 7 75 28 44 39 20 19 15 22 16 4 2 -3 -3 3 6 2 17 6 -1 -6 -8 -5 -1 -11 -18 -42 -5 -13 -8 -7 -14 -4 0 27 21 9 2 18 -8 1
-1 9 21 51 26 41 18 54 34 48 31 27 4 3 15 21 19 14 14 7 10 3 11 2 3 25 20 4 5 -6 4 -31 -29 -18 21 -4 -7 -11 -5 9 4 12 10 55 43 1 -7 32 47
-13 0 34 85 20 48 22 53 41 33 23 18 -18 -24 -3 7 10 23 17 5 5 4 27 21 14 24 42 11 1 5 -10 -27 -37 -36 -27 2 -13 6 2 -11 -9 12 13 14 32 7 30 36 12
-15 14 10 76 59 19 18 23 50 39 15 14 10 -19 -34 -18 5 24 7 16 3 40 25 23 19 10 30 28 -7 -25 -18 -18 -17 -18 9 -3 8 8 9 -5 27 14 42 23 15 82 61 55 19
-8 13 4 4 90 0 14 14 55 35 11 13 35 6 8 -20 8 16 19 20 27 39 44 47 36 47 22 40 22 -13 -9 -17 -1 -25 10 21 12 17 45 13 24 30 -2 39 93 47 24 18 79
-18 -17 -7 23 84 9 5 15 56 71 15 2 18 36 23 14 -7 5 32 22 48 66 81 81 73 65 53 32 -18 -32 1 16 23 -19 45 21 12 31 32 18 35 46 30 48 57 33 32 26 59
-37 -33 -41 -10 123 1 21 4 11 46 73 23 11 20 38 23 24 56 28 28 46 69 82 115 101 80 68 5 7 5 -14 6 48 0 22 13 21 24 18 7 -6 50 26 35 51 28 26 8 42
-24 -34 18 -35 132 54 34 -5 74 36 38 62 55 36 53 82 21 41 89 48 46 71 100 84 108 68 56 36 -7 45 25 12 13 8 21 41 24 -5 8 -5 3 15 -10 62 51 38 2 12 19
-28 -26 -31 7 50 65 58 6 -7 28 57 65 35 71 43 41 60 87 127 109 61 79 89 95 114 83 39 52 -17 25 -17 -3 -14 -29 -44 -56 -11 -24 -5 7 18 16 15 55 33 31 22 17 -7
27 -1 11 6 23 21 19 55 -10 102 8 45 45 65 76 35 64 105 93 122 116 75 106 102 131 101 59 33 22 -31 -5 -65 -34 -41 -20 -21 -19 1 6 29 46 33 22 62 34 23 14 1 13
33 19 54 44 75 0 19 54 18 25 56 23 7 58 82 86 59 102 134 125 140 106 127 117 142 99 58 31 16 3 -43 -40 -80 -44 -33 -29 -6 16 69 40 64 49 45 56 39 41 29 34 21
31 18 74 60 51 67 11 40 -40 41 34 49 34 23 50 68 60 77 96 115 189 139 144 122 138 92 59 38 28 11 -20 -42 -40 -33 -45 -11 -3 33 113 91 84 46 74 52 75 55 35 54 37
18 70 16 18 24 44 46 50 19 59 49 51 20 11 48 70 58 89 111 125 159 160 139 129 115 82 60 54 51 17 -1 -37 -28 -29 8 -15 9 40 107 104 73 75 67 73 89 34 75 48 57
-16 59 55 63 48 48 35 24 72 76 48 17 48 3 37 51 48 80 126 121 131 150 96 94 89 75 46 66 65 29 4 -12 -24 6 27 20 38 20 148 112 113 109 98 79 66 66 54 52 39
49 18 81 55 52 53 53 46 37 52 47 24 -2 4 27 41 43 48 132 126 131 161 110 98 72 64 58 69 66 44 27 30 33 48 69 56 45 139 156 149 121 134 121 85 52 28 68 87 61
20 32 16 105 77 67 18 30 75 50 67 31 48 46 27 54 65 37 52 105 108 133 158 134 93 70 97 110 94 93 88 85 91 105 131 114 106 141 156 211 172 151 146 47 70 33 40 63 59

GFSSGP_con_3kmhel_021.txt.gz
Helicity
80 46 -28 -17 44 30 48 -2 87 49 25 -12 19 7 29 25 -106 -62 -82 -23 -22 -18 -67 -58 -37 -44 -48 -42 -28 -10 7 19 18 4 7 12 11 8 4 8 11 13 17 18 -1 -25 -6 13 18
83 27 96 -42 -22 -29 -10 -49 -15 -9 -3 16 42 17 3 7 -12 -73 -96 -22 -12 -37 -52 -32 -39 -42 -40 -35 -18 -17 -13 -0 13 -2 3 6 8 3 7 16 15 20 24 29 -19 -29 -25 -3 -0
150 8 -34 31 22 -60 -133 -48 -6 24 61 20 -25 -36 4 13 -6 -52 -75 -16 -19 -35 -32 -32 -28 -40 -30 -25 -27 -27 -18 -7 -10 -9 2 4 7 13 15 16 22 24 31 33 -22 -36 -34 -33 -32
2 -1 73 54 31 -126 -81 -15 -2 -32 103 63 64 46 -14 -17 -43 -71 -35 -12 -32 -18 -32 -29 -29 -28 -23 -25 -32 -32 -25 -16 -18 -10 -0 2 9 15 17 19 20 27 33 32 28 -4 -33 -38 -28
-44 36 198 -16 -71 -90 66 182 66 239 145 113 140 60 37 6 -8 -44 -41 -5 12 -12 -30 -31 -24 -20 -18 -21 -27 -29 -20 -17 -16 -8 -4 6 11 20 22 18 23 36 43 35 27 28 -2 -42 -37
31 86 92 85 -49 14 97 206 120 191 180 63 133 103 4 10 -3 -34 -16 15 22 2 -24 -25 -19 -17 -12 -13 -16 -19 -14 -10 -9 -1 5 7 18 24 31 30 43 51 40 28 26 27 28 17 -6
-70 71 143 160 -12 31 86 11 70 154 201 51 123 150 -9 -12 -14 -23 -8 5 19 24 -6 -25 -30 -20 -10 -10 -12 -11 -9 -0 8 11 11 17 16 23 35 40 53 65 44 39 30 28 12 21 15
-8 55 171 115 193 35 35 10 258 69 159 103 189 -1 28 50 6 -36 -14 -17 19 25 9 -19 -31 -31 -26 -21 -9 -4 1 10 11 12 12 12 15 34 57 58 71 70 55 42 25 26 21 37 29
125 93 133 97 63 10 51 108 108 151 190 115 23 104 26 39 27 -20 -33 53 36 6 -1 -9 -21 -26 -28 -26 -11 -3 7 6 8 11 19 35 30 37 80 84 73 48 48 38 24 12 26 59 73
228 134 159 89 54 -36 64 89 33 47 181 100 131 71 40 88 -4 -25 17 27 1 -0 -16 -17 -17 -22 -17 -16 -23 -14 -3 -6 2 9 19 24 12 10 37 71 55 31 22 38 18 24 32 35 62
176 112 111 58 62 -26 41 143 96 144 142 71 284 146 80 108 37 -21 -9 70 28 -8 -36 -26 -29 -20 -12 -12 -7 -14 -13 -16 -12 -5 -10 29 18 25 25 42 29 19 23 26 29 23 11 28 21
31 70 105 37 58 2 106 48 145 80 156 181 324 168 154 120 112 43 8 32 18 14 12 62 -5 -30 -22 30 11 -18 -29 -26 -30 -2 -16 26 39 18 -16 23 16 -7 18 31 33 14 18 43 14
-9 61 93 131 170 -7 110 47 156 99 258 251 251 86 166 123 101 78 88 37 25 105 125 87 39 -5 19 33 7 -19 -19 -5 16 41 28 14 43 42 4 -1 41 24 24 19 43 47 48 13 -2
56 19 -2 66 192 65 159 12 101 139 217 252 274 122 81 9 100 62 123 108 86 106 147 85 52 23 50 2 8 15 4 62 51 88 64 29 52 52 41 17 -0 -4 31 51 49 26 12 5 8
15 11 19 -8 12 42 389 212 153 111 227 288 279 148 43 -26 -68 -2 219 233 103 142 157 123 65 49 53 13 2 -29 -24 -15 -13 16 33 33 49 55 40 37 12 16 22 67 62 29 -2 -1 1
6 -23 -25 27 9 58 287 54 -24 122 260 283 277 125 83 6 -47 -44 70 165 58 88 213 173 118 85 73 63 6 -22 3 9 -26 19 15 24 38 64 34 22 23 41 39 83 60 52 46 48 63
-58 -27 3 45 -17 83 201 209 66 120 222 251 295 178 114 34 -5 -3 -53 112 113 242 222 203 146 114 100 51 42 3 -20 -19 -28 -2 55 55 53 54 48 7 32 53 70 84 72 68 62 57 66
-73 -85 8 -16 43 209 192 121 139 37 161 220 277 235 138 77 36 83 48 34 146 193 256 185 191 166 89 42 31 -1 -15 -18 -33 30 41 32 68 73 48 13 78 54 68 85 66 62 53 51 54
-64 -30 17 71 71 334 200 170 145 111 60 100 324 242 268 132 64 114 118 94 151 189 232 222 190 201 163 102 101 59 15 -12 -21 5 49 35 93 80 58 50 77 58 56 57 33 50 52 36 41
-74 -74 -43 -17 140 266 190 323 103 12 36 115 266 292 305 256 119 149 153 159 191 214 242 225 209 241 226 193 146 84 38 -27 -50 -27 52 119 116 109 98 72 57 52 47 76 95 59 52 31 22
-59 -99 -81 -63 14 234 220 200 40 -102 91 2 65 244 289 304 293 254 192 190 239 281 279 264 238 244 261 234 184 116 46 -30 -46 -38 80 97 120 105 77 46 39 24 73 112 96 52 73 51 11
2 -75 2 38 -34 115 308 25 -9 -44 -19 -26 -3 195 271 293 301 365 376 303 275 295 317 289 272 266 255 286 239 188 103 45 -36 -12 89 119 117 96 83 41 46 55 79 110 75 55 51 69 46
-55 30 -47 79 42 234 81 47 27 115 85 -89 103 248 245 264 328 382 448 458 424 447 445 382 311 266 235 250 232 152 95 59 8 36 78 125 120 99 78 48 54 88 74 71 100 67 52 62 71
-24 67 29 49 22 70 165 79 84 153 179 132 180 204 253 236 294 342 437 461 432 501 517 501 372 290 278 211 221 159 107 59 17 10 85 89 84 42 53 84 101 77 70 96 89 75 64 55 68
13 35 -2 57 64 31 55 153 160 -65 70 276 229 136 187 214 287 313 357 438 455 506 568 578 463 328 289 231 159 143 98 50 26 39 109 103 58 46 73 130 129 92 83 81 89 75 49 36 47
34 13 69 154 78 87 40 161 53 189 111 252 285 138 249 236 316 308 371 445 470 495 545 586 566 420 313 251 173 116 109 28 1 39 53 82 68 46 58 122 135 101 97 91 91 72 51 1 -49
-78 63 -28 78 60 101 82 79 14 106 118 117 308 205 128 153 134 288 375 413 496 488 514 547 571 505 361 292 208 122 93 55 35 -0 28 19 14 30 70 134 156 135 118 132 145 120 67 -11 -32
50 43 127 35 68 65 38 82 9 82 168 291 204 92 126 112 90 286 328 414 485 552 535 511 565 549 443 292 241 143 91 63 12 11 20 18 13 43 98 167 195 189 152 159 183 157 97 81 13
40 16 10 130 64 95 107 39 -71 21 233 294 205 149 175 61 126 258 268 372 429 479 488 499 508 491 408 322 219 137 94 75 37 7 24 81 23 83 143 220 246 237 249 210 230 199 176 154 92
85 171 99 124 147 135 100 -4 -29 69 79 187 406 284 89 111 148 300 301 354 438 422 452 483 491 483 410 336 237 145 84 75 46 35 32 71 104 163 245 274 303 265 239 265 281 249 242 176 144

GFSSGP_con_3kmhel_024.txt.gz
Helicity
91 70 17 19 68 -4 24 -62 -18 -24 -23 41 26 7 19 43 -45 -55 -81 -39 -36 -26 -39 -41 -46 -56 -60 -42 -28 -18 5 4 6 9 2 9 14 12 11 15 13 10 -13 -20 -20 -20 -13 -13 6
39 51 44 -1 -9 -24 -12 -19 -20 -8 37 78 60 12 36 -8 21 -49 -101 -40 -49 -49 -24 -29 -47 -50 -42 -33 -21 -4 2 5 5 4 0 6 8 13 18 17 12 5 -5 -15 -16 -21 -13 -5 0
62 -3 -58 14 65 -63 -37 26 35 5 28 26 35 -3 -11 -23 -31 -59 -66 -43 -61 -39 -26 -30 -40 -44 -33 -19 -3 -4 -1 5 5 -3 2 6 14 18 21 19 12 5 -4 -17 -24 -33 -26 -25 -31
17 16 81 2 37 -49 19 54 65 32 -1 40 71 88 19 -76 -20 -35 -29 -40 -50 -45 -46 -38 -35 -31 -26 -17 -11 -6 -3 -3 -5 -3 2 9 18 25 22 26 19 20 18 -10 -31 5 32 -53 -38
30 84 104 96 45 -15 67 15 76 62 35 32 49 64 24 -93 -26 -20 -31 -31 -35 -48 -48 -39 -19 -24 -19 -19 -16 -15 -13 -11 -4 2 7 18 22 19 21 22 29 32 29 35 40 31 24 -37 -32
2 95 -46 -11 24 7 72 21 111 109 86 97 137 154 7 -15 2 -24 -16 -24 -31 -27 -46 -34 -17 -15 -17 -14 -15 -15 -12 -6 5 10 17 25 19 27 26 26 34 39 35 28 31 24 13 0 -14
130 82 106 40 38 59 91 134 184 144 82 20 120 181 0 -24 -38 -1 4 -9 -15 -17 -26 -34 -30 -18 -11 -12 -6 -2 -1 7 14 16 19 20 21 22 29 37 51 51 43 25 15 22 22 13 7
-12 52 97 107 -2 30 57 97 167 157 36 66 88 60 32 -27 -35 43 17 -10 0 -16 -23 -23 -29 -27 -22 -18 3 7 10 19 19 20 24 29 28 28 37 50 58 52 41 26 16 31 25 25 9
88 119 48 31 -19 43 79 103 67 90 117 -13 30 91 17 -32 -16 44 29 -11 -10 -21 -8 -19 -16 -19 -24 -18 -9 5 16 21 19 23 32 29 25 27 33 42 61 53 32 22 22 36 27 17 18
-19 -131 7 62 8 76 163 208 193 209 153 85 81 70 16 -18 29 50 63 33 1 -17 -9 -3 -14 -13 -13 -10 -16 -17 -11 -17 -8 2 10 20 10 29 26 32 48 46 27 23 17 24 16 9 13
91 78 109 -36 3 76 170 154 179 293 161 264 243 122 63 41 34 64 74 88 23 7 -12 -3 -3 -8 -8 -21 -32 -38 -42 -28 -28 -17 3 -1 23 7 16 7 12 -3 13 1 -3 8 6 10 10
163 225 164 98 -28 111 168 211 237 234 169 307 243 143 101 88 24 11 52 64 24 15 -10 -1 -6 -3 -16 -42 -38 -41 -34 -40 -46 -44 -23 -2 4 14 -25 1 1 2 12 1 6 15 17 17 27
162 120 173 114 -5 68 84 123 244 133 259 224 211 194 108 66 17 -19 61 79 68 49 9 -19 -22 -1 -13 -32 -35 -48 -43 -43 -46 -46 -35 -7 10 11 -8 12 10 14 9 18 20 22 27 22 25
-16 6 3 56 138 21 152 -2 151 190 276 276 315 189 117 61 29 -2 11 58 45 63 31 8 -6 -7 -28 -6 -14 -39 -37 -37 -6 -17 -26 38 35 45 40 26 28 26 28 33 43 37 36 48 19
8 -30 -16 -20 23 48 164 166 165 307 333 283 308 180 140 58 58 84 70 62 73 98 90 50 47 16 -6 13 22 2 -11 4 9 32 2 53 64 47 45 37 36 30 47 51 53 24 41 28 35
-21 -36 -10 -38 59 85 235 263 225 394 308 284 317 188 134 108 88 113 111 113 133 138 156 90 54 57 22 24 36 6 -16 -1 9 30 21 63 53 38 35 22 49 69 64 54 41 41 60 67 92
32 -128 -24 0 37 105 46 146 109 251 327 247 199 225 147 102 63 103 160 144 162 192 155 110 99 83 30 35 53 5 9 31 50 19 22 72 42 62 31 29 33 66 83 68 48 40 55 54 55
-54 0 -71 -42 -7 162 108 210 154 240 331 265 217 168 100 60 4 110 167 156 181 197 198 169 148 123 42 47 62 16 -9 -4 -16 22 35 60 51 60 43 39 50 84 89 78 46 42 41 47 42
-36 -136 -102 -99 -17 128 162 204 282 361 272 265 378 341 207 70 11 43 121 124 114 162 194 179 168 138 88 78 95 71 42 5 17 50 5 55 64 71 62 54 71 78 79 57 42 43 42 28 48
-64 -142 -143 -144 -90 67 146 195 278 388 323 353 375 372 323 168 40 7 168 167 201 249 231 230 220 170 142 96 85 31 11 -7 -42 -13 -7 13 50 79 73 75 65 76 58 56 63 63 45 14 31
-59 -131 -173 -120 -37 45 202 300 267 237 230 183 275 378 335 297 244 137 130 224 282 272 293 303 260 204 184 177 135 57 14 -27 -25 -4 6 14 70 114 108 81 58 44 65 77 73 69 67 31 8
-116 -109 -80 -31 36 60 26 81 26 92 30 136 240 328 391 344 295 283 239 271 313 350 326 328 298 263 251 249 194 158 117 73 23 25 10 32 81 133 111 92 40 44 72 94 80 65 65 66 48
-83 21 -46 -45 19 42 -90 42 70 69 -20 -24 114 292 360 384 287 344 399 420 420 409 387 368 394 353 304 245 244 231 178 106 47 34 14 46 81 94 107 90 59 46 67 92 91 65 64 51 64
-26 31 27 21 19 52 -68 -81 28 72 -25 -19 64 212 325 346 328 307 404 417 453 477 446 403 420 380 347 291 263 262 211 115 65 28 30 43 50 65 81 69 70 57 85 90 67 56 63 55 36
52 26 -7 10 54 -5 -23 82 -32 111 114 157 130 258 329 288 350 315 345 361 396 501 495 464 436 390 367 335 289 266 221 127 77 55 49 62 41 48 62 83 79 110 105 97 93 81 45 32 20
-15 43 11 159 115 18 50 105 -71 81 171 277 210 213 362 217 256 337 409 393 450 511 566 556 490 417 385 327 287 249 201 107 52 38 51 30 37 84 83 102 126 123 107 123 108 79 47 40 11
-86 25 22 -11 48 128 69 115 24 56 95 165 181 229 301 208 212 347 419 359 441 472 557 572 549 453 407 323 259 224 182 105 50 29 17 19 37 48 77 102 128 118 125 136 126 95 71 78 31
63 59 81 136 -29 15 66 87 75 89 12 75 178 284 356 258 158 231 377 366 403 499 538 542 564 535 457 359 268 232 165 117 71 36 33 13 16 24 53 88 117 132 131 140 158 131 111 121 92
38 -2 95 91 84 4 -77 -122 21 -66 -13 52 192 333 362 352 167 165 296 296 429 488 509 498 489 444 389 330 270 217 142 83 59 8 -2 31 31 26 87 118 132 139 149 163 186 178 201 159 131
19 53 97 152 210 121 39 -47 95 46 20 24 91 307 285 292 306 144 308 272 270 436 475 470 488 416 400 360 281 222 145 81 54 40 -2 -4 44 73 97 128 161 167 173 188 218 216 207 248 216

GFSSGP_con_3kmhel_030.txt.gz
Helicity
88 98 28 2 -16 -35 51 1 -23 7 12 43 40 27 76 46 -47 -30 16 64 22 -73 -102 -84 -48 -40 -36 -50 -49 -44 -22 -5 5 13 19 14 13 14 12 12 9 4 8 14 2 7 2 9 19
94 83 -3 25 -24 -49 -77 -10 -18 -8 42 131 88 65 60 16 1 20 1 -29 -76 -78 -110 -93 -46 -34 -39 -53 -48 -36 -15 -3 6 10 9 12 16 13 11 10 11 26 22 4 -8 -2 -11 -9 3
37 17 25 55 -21 -44 -50 -57 4 101 79 43 15 22 12 3 20 -4 -30 -83 -76 -94 -97 -72 -43 -40 -44 -52 -41 -29 -8 -1 7 5 8 14 13 12 14 13 23 29 25 12 -9 -16 -29 -35 -24
-14 26 46 -78 -23 14 62 -47 98 62 8 9 83 33 50 -52 -52 48 -85 -92 -90 -92 -95 -54 -41 -43 -45 -39 -27 -14 -2 2 1 6 13 15 15 17 17 24 30 24 20 14 -10 -18 -32 -16 -10
14 45 -41 7 12 -35 -93 57 61 26 -1 30 11 -4 -6 19 -67 -32 -78 -75 -59 -73 -95 -74 -48 -44 -37 -28 -22 -12 -6 -5 4 15 20 16 17 18 26 30 27 24 21 9 8 18 30 36 26
42 35 -80 -143 29 -64 -84 66 13 12 8 13 73 78 1 -49 -18 -62 -63 -58 -67 -51 -91 -79 -51 -37 -30 -24 -20 -12 -9 -0 12 17 20 19 19 22 29 30 30 25 14 9 10 19 22 33 35
25 17 17 -13 -80 -95 -70 20 -2 29 -5 -17 92 67 11 -24 -37 -60 -61 -64 -73 -72 -67 -71 -67 -47 -24 -20 -14 -5 -1 11 21 21 20 21 20 23 36 32 29 26 11 11 12 16 16 17 22
7 -23 -4 -85 -110 -113 -36 -1 49 59 -35 50 37 12 26 -40 -28 -22 -50 -63 -66 -77 -69 -61 -57 -50 -43 -30 -2 1 11 19 20 18 15 24 22 28 36 35 35 25 12 10 7 11 12 22 24
40 -21 57 -36 -47 -46 53 5 32 -26 41 32 4 36 27 44 32 44 6 -53 -70 -76 -70 -51 -42 -38 -37 -29 -12 4 16 19 19 19 21 25 10 20 25 33 37 32 12 13 15 13 19 34 34
34 -13 6 -14 4 38 81 130 93 -38 36 -47 1 106 189 124 83 91 55 -6 -56 -59 -55 -42 -37 -29 -29 -20 -18 -14 -5 -4 -2 1 3 3 9 15 25 26 27 13 14 19 16 10 17 11 14
-21 74 12 24 22 32 87 48 84 39 -27 4 129 220 249 137 84 72 30 -11 -22 -41 -31 -31 -28 -24 -18 -15 -25 -20 -16 -13 -17 -7 -8 -6 5 13 2 2 -1 -9 -7 -15 -11 -5 2 36 34
14 67 56 38 -13 -10 69 104 45 74 -3 47 182 312 299 157 94 58 23 -26 -27 -30 -17 -24 -21 -16 -17 -25 -24 -23 -23 -25 -29 -22 -12 -7 1 -5 -14 -12 -10 -13 -6 9 4 4 7 25 25
58 23 27 62 1 30 90 170 132 96 -34 86 214 319 264 153 74 22 5 -19 -18 -21 -24 -20 -10 -13 -20 -25 -33 -32 -29 -36 -37 -34 -21 -6 4 -2 -22 -8 -6 -0 8 16 12 4 10 26 5
-9 21 81 47 55 5 128 231 210 48 24 162 263 244 219 138 102 18 -5 -14 -2 -18 -9 -12 -7 -11 -19 -18 -34 -36 -45 -45 -37 -36 -25 -4 -2 -3 -3 1 2 18 27 22 11 10 3 16 6
-13 -13 15 1 -15 22 142 148 269 40 217 180 207 177 184 54 64 70 24 10 -1 -8 -2 6 2 -13 -13 -20 -42 -47 -47 -47 -38 -27 -23 8 3 5 13 19 15 23 28 35 35 45 28 26 56
-14 -31 -70 -27 9 -13 193 285 192 229 233 193 204 163 143 51 37 22 11 20 10 -2 6 2 -10 -16 -22 -33 -52 -48 -41 -38 -52 -48 -24 17 13 4 8 17 26 25 36 46 60 48 46 36 33
2 -60 -43 -23 -13 -0 113 133 284 302 273 239 231 165 122 67 -0 -1 -7 18 11 22 10 -3 5 -3 -10 -34 -44 -36 -38 -20 -26 -24 11 16 37 8 27 28 28 51 56 62 65 50 51 36 32
43 17 -37 -38 -8 5 44 49 83 316 296 375 287 169 157 63 50 -4 -0 -7 -2 -0 13 8 14 -4 -12 -33 -51 -59 -43 -26 -19 -11 -1 8 28 28 32 30 41 59 64 54 55 60 54 33 8
36 23 -13 -32 7 41 59 30 107 295 243 326 311 222 176 86 51 15 -15 -16 -9 -8 17 24 23 -9 -9 -17 -43 -42 5 -15 -24 -7 3 2 3 27 51 42 43 56 48 39 45 49 63 55 7
78 5 -44 -21 -4 50 45 -16 69 298 315 353 363 274 170 30 49 54 8 -1 -4 32 51 61 62 45 36 28 1 4 40 -3 -7 -13 -13 -3 8 31 60 65 56 48 40 29 39 56 57 25 -6
75 -102 -31 4 55 95 53 29 53 94 166 73 114 267 160 42 87 50 46 59 49 13 49 72 87 91 71 53 20 4 47 24 -9 -24 -7 13 33 41 71 63 66 33 35 32 30 50 28 11 -17
23 80 36 -25 52 51 78 -70 -17 -62 107 74 109 213 195 81 43 78 44 33 53 92 79 86 74 89 93 97 74 85 73 96 67 76 72 56 42 52 47 51 47 34 33 31 31 43 15 -1 -13
56 126 73 53 37 23 56 8 -105 70 6 60 90 254 256 225 156 167 166 130 139 91 89 116 152 145 134 172 145 120 92 77 48 50 75 48 36 51 -11 30 35 32 37 30 30 47 22 2 1
161 124 131 102 61 -25 -144 -99 -84 -56 11 71 68 119 230 236 193 172 219 133 93 91 86 89 119 139 160 180 175 159 134 116 84 45 71 66 32 26 -18 -33 13 29 31 23 34 29 28 26 9
130 105 73 86 97 -62 -35 -114 -48 -36 80 69 143 171 229 284 280 228 195 204 185 189 181 191 158 132 170 208 205 201 180 171 128 107 92 88 58 17 -23 -36 -11 19 42 27 29 36 29 41 43
107 124 186 175 152 45 109 -122 -70 -170 42 16 73 192 244 273 319 303 305 318 318 317 307 240 234 185 196 222 221 233 219 184 134 118 105 84 76 36 4 -7 11 37 43 18 19 34 35 39 52
236 150 123 191 208 153 187 -38 -98 9 17 6 13 61 153 278 339 343 328 322 318 310 356 378 301 235 240 239 243 238 243 201 160 152 139 101 76 23 1 -11 7 29 40 38 40 34 48 54 71
160 258 268 255 89 -31 157 114 102 119 44 52 34 49 102 156 218 257 292 315 315 335 422 449 406 383 332 316 302 299 293 271 221 198 138 127 90 50 4 -25 -29 10 34 48 60 43 35 75 68
277 252 256 182 258 94 -2 57 89 42 -25 44 2 33 87 122 229 283 279 291 328 306 307 406 424 401 358 319 328 312 259 254 248 227 164 135 120 77 22 -9 -29 -11 32 54 64 53 73 93 88
123 221 332 297 226 228 64 -25 -4 -60 116 192 72 73 37 28 125 245 313 303 273 279 291 335 388 380 405 430 381 366 355 313 290 235 179 152 123 86 39 1 -30 -23 32 70 85 78 80 108 113

GFSSGP_con_3kmhel_033.txt.gz
Helicity
78 39 12 3 -24 38 43 9 38 35 29 20 25 12 -8 44 7 -25 30 56 -14 -60 -68 -80 -67 -66 -60 -52 -42 -23 -11 5 13 9 9 9 9 12 13 6 7 17 11 12 -4 4 10 7 13
62 52 25 49 -19 -33 -25 -5 9 61 53 86 25 18 42 10 3 19 51 -21 -39 -61 -63 -67 -63 -56 -52 -55 -33 -20 -1 9 11 11 14 12 9 12 4 6 15 17 8 4 -19 -21 13 2 9
53 42 62 61 -29 -18 -18 -24 52 78 70 37 9 27 27 -6 19 19 2 -31 -68 -66 -61 -61 -55 -55 -49 -44 -30 -17 -1 11 13 19 19 14 9 7 5 11 22 17 1 -7 -20 -25 -10 -11 -5
35 45 86 20 -56 -25 6 36 127 78 -2 2 57 15 18 20 -11 -6 -36 -56 -60 -54 -57 -60 -62 -54 -47 -38 -28 -15 -2 8 13 17 17 11 10 10 11 16 27 17 8 20 21 24 23 15 -18
36 89 65 87 44 -49 -22 104 76 31 -5 -8 11 -34 -13 46 -53 -17 -42 -55 -60 -51 -61 -58 -66 -56 -45 -30 -25 -15 -2 6 13 16 11 11 11 12 12 14 25 16 17 22 22 23 21 23 15
-17 14 29 38 2 -65 -57 88 61 5 -3 -7 -4 32 -14 -92 -46 -48 -53 -61 -61 -45 -58 -66 -66 -51 -38 -24 -19 -8 7 11 12 14 16 16 15 12 13 19 21 18 18 16 14 20 15 16 7
-9 15 -33 67 29 -75 -51 44 18 -2 9 -22 21 30 -29 -37 -44 -50 -51 -59 -57 -50 -52 -59 -47 -45 -32 -17 -7 7 10 11 11 15 20 19 15 16 19 18 17 13 11 9 12 14 10 4 5
14 -15 -58 -79 -76 -70 -36 -9 12 5 -27 27 8 -7 -22 -34 -27 -24 -38 -50 -52 -55 -55 -48 -40 -35 -22 -9 3 10 13 12 13 15 19 18 21 22 24 24 18 17 15 12 11 11 11 13 20
7 2 35 -51 -74 -81 12 -21 -24 -23 31 -12 13 9 58 31 -13 -2 -24 -44 -53 -60 -52 -42 -35 -31 -19 -7 1 11 14 13 15 22 22 20 22 21 24 16 29 17 18 15 8 16 11 11 19
5 39 21 -31 -7 23 33 28 40 -26 44 -33 -13 80 188 98 51 78 44 7 -36 -43 -39 -36 -34 -28 -23 -15 1 6 12 13 14 12 16 16 15 16 23 23 22 6 7 8 5 7 9 13 -2
19 -35 -27 -17 48 -16 45 53 15 -0 18 26 97 190 221 146 81 57 30 9 -17 -34 -37 -27 -33 -30 -23 -14 -3 1 3 6 8 8 12 6 16 13 16 8 1 -2 -7 -9 -5 -2 13 14 -1
63 70 49 42 8 10 15 47 51 68 -39 60 142 255 265 162 114 57 29 -1 -21 -26 -21 -19 -20 -23 -20 -17 -7 -5 -3 -1 1 -0 1 5 16 9 3 3 -1 1 -14 1 2 7 17 18 19
61 52 15 44 45 -30 18 79 51 69 54 -3 169 237 232 152 72 22 2 -10 -16 -13 -19 -15 -13 -19 -21 -14 -14 -9 -7 -7 -3 -3 -4 1 7 7 3 5 2 2 1 4 3 28 27 18 7
10 49 54 43 40 -5 45 47 60 21 99 86 141 233 197 154 81 26 5 6 5 -11 -18 -16 -6 -10 -16 -13 -14 -17 -18 -14 -8 -12 -5 -5 4 8 8 4 -1 4 9 12 5 5 37 29 6
41 45 44 38 7 -1 11 8 170 48 147 143 118 166 176 107 77 44 29 22 16 -4 -19 -12 -8 -10 -10 -9 -16 -21 -25 -19 -17 -20 -12 -4 3 5 10 4 6 5 12 17 42 33 44 68 56
31 -18 -35 7 7 21 23 92 115 147 176 175 151 151 150 133 107 38 17 10 -3 -9 -8 -16 -24 -12 -6 -14 -21 -22 -25 -16 -21 -24 -19 -6 5 19 9 4 10 10 23 23 29 24 25 40 58
23 -5 -12 -6 4 15 -21 47 20 138 214 199 189 153 111 117 41 33 17 10 -8 -10 -17 -18 -19 -12 -7 -16 -24 -26 -25 -20 -24 -33 -26 -9 16 18 15 9 10 22 29 24 31 33 31 32 31
16 -20 -6 -28 29 17 -28 126 36 75 191 208 187 153 128 92 95 22 4 -3 -9 -17 -22 -21 -23 -15 -17 -29 -35 -34 -24 -20 -28 -19 -24 -2 5 24 7 12 21 32 44 42 44 46 52 40 7
55 12 -24 3 20 9 -14 64 21 50 68 158 160 130 143 106 57 14 -1 -16 -13 -24 -29 -23 -20 -17 -32 -30 -20 -3 19 -5 -6 2 -1 -6 1 8 11 26 36 35 35 33 38 51 55 25 -5
35 8 -33 -16 33 16 9 8 12 56 123 162 253 176 162 86 87 -6 -8 -6 -21 -26 -34 -32 -15 -11 -15 -23 -6 8 17 7 6 -4 -13 -10 2 9 20 38 35 28 16 23 40 36 22 20 -2
-12 -93 -12 3 54 24 6 -27 10 19 57 80 112 105 62 64 162 92 -13 5 -8 -30 -31 -31 -20 -13 -16 -10 -23 -32 -6 12 -11 -13 -18 -6 3 5 18 30 19 2 -3 -6 21 23 34 2 12
-53 -10 36 3 24 -14 28 -10 -56 15 -7 58 71 100 50 46 40 70 76 -14 14 -5 -18 -3 -9 -0 -3 10 5 26 32 43 42 47 25 5 -5 -2 10 24 9 -12 -27 -15 -17 -0 5 5 36
14 10 -6 24 16 35 4 -0 -69 34 -73 -9 86 93 102 34 31 91 92 96 56 -23 -25 -21 11 15 10 37 58 50 33 19 1 6 21 18 -0 9 11 6 -15 -14 -18 -24 -23 -15 1 5 21
67 91 55 79 43 -38 -34 10 -24 -107 2 -9 39 42 96 130 84 60 59 63 60 57 -30 -49 -22 7 23 43 70 76 70 50 16 6 10 11 22 17 25 -24 -57 -37 -31 -17 -20 -21 -4 -0 2
32 21 84 79 18 -26 32 -27 -12 15 -52 9 14 66 82 165 137 110 85 66 93 103 147 52 28 16 37 55 56 88 83 87 90 72 24 27 40 43 42 -2 -60 -72 -26 -17 -32 -22 -0 8 13
63 53 186 93 9 7 69 -25 -11 -81 -48 -11 6 42 18 43 133 157 166 156 148 147 135 146 119 67 84 87 88 87 94 81 87 66 43 43 38 37 47 11 -41 -60 -39 -21 -26 -28 -3 12 9
134 77 48 129 126 77 30 -43 -33 55 11 13 4 33 12 37 69 148 211 206 218 192 201 204 192 136 141 100 109 119 113 121 111 120 119 62 60 31 32 2 -33 -56 -40 -17 -16 -23 7 14 28
117 184 225 96 -3 7 36 35 100 47 106 64 30 44 47 31 76 112 138 214 265 248 268 266 240 209 210 180 171 144 150 150 153 152 131 112 98 59 35 -16 -56 -67 -55 -20 -5 -12 3 20 22
226 134 163 115 207 24 52 29 -0 5 51 69 55 40 -9 13 78 83 135 206 229 194 186 225 282 281 227 196 175 141 91 87 131 163 140 127 134 98 64 -0 -55 -67 -45 -17 4 8 21 41 47
119 158 171 250 175 89 95 19 42 -29 -28 23 20 11 44 38 48 70 136 74 103 168 206 208 230 253 289 291 233 197 168 175 178 187 171 145 145 120 104 48 -35 -53 -38 -22 -2 29 34 62 70

GFSSGP_con_3kmhel_036.txt.gz
Helicity
63 43 -2 36 56 40 -14 -15 43 3 -3 14 -9 21 31 64 54 -2 27 -29 -45 -100 -90 -78 -60 -84 -61 -45 -29 -15 -1 1 -2 2 3 2 -0 2 6 12 7 6 3 1 6 10 6 10 20
67 58 3 49 69 -4 -1 -14 -13 8 6 6 6 5 -6 33 26 40 33 -20 -64 -82 -74 -87 -78 -67 -58 -43 -31 -11 -2 -1 3 -2 5 1 -2 1 9 20 12 -5 5 7 -10 -10 -6 -4 3
47 14 83 92 67 23 8 29 -5 8 -1 9 8 35 45 31 42 37 2 -25 -31 -36 -74 -86 -66 -62 -49 -42 -28 -14 -5 4 8 4 3 1 -1 4 13 22 16 4 8 4 -1 -8 -3 -9 -6
45 95 83 -5 -13 12 29 3 21 19 -11 -11 3 5 35 33 15 -38 -7 -24 -42 -60 -63 -57 -55 -56 -50 -38 -23 -8 -1 7 7 5 5 -0 3 8 19 22 10 14 23 13 5 -5 11 14 2
40 90 45 100 3 3 5 3 -28 -28 -20 -18 3 -10 -19 32 5 9 -24 -49 -44 -46 -39 -43 -57 -52 -41 -27 -12 -2 -2 8 6 8 6 6 6 11 15 21 12 18 18 10 13 9 10 6 10
40 59 102 16 12 -2 -2 -15 -21 -14 -8 -23 -9 -6 -6 -23 16 -27 -47 -58 -42 -38 -34 -47 -56 -47 -36 -19 -8 -7 7 9 11 12 11 6 7 11 15 20 19 15 12 13 8 2 -0 1 -3
71 92 48 44 14 -5 -12 -18 -25 -14 -14 -20 4 -2 -25 -29 -17 -26 -43 -52 -45 -34 -36 -48 -43 -53 -32 -21 -12 3 8 12 16 15 12 10 13 15 19 22 19 15 11 14 16 10 5 -2 -7
43 65 16 -15 4 -4 -13 -14 -14 -20 -12 9 -9 -29 -4 -14 -12 -28 -48 -51 -45 -37 -42 -49 -45 -35 -19 -14 -1 6 11 12 18 15 16 19 23 24 24 34 11 15 17 15 11 7 16 22 20
-5 75 -10 1 -27 -8 34 14 -2 -2 17 -28 -29 -16 72 20 -15 -16 -37 -48 -44 -42 -42 -46 -37 -39 -18 -9 -6 10 12 17 21 24 21 42 39 9 25 -4 17 22 18 17 16 6 9 34 40
-20 81 43 33 25 34 14 6 45 5 26 11 -9 56 123 70 31 35 21 -7 -19 -25 -35 -44 -37 -30 -17 -0 -12 12 12 23 28 26 20 33 10 6 21 11 12 9 11 16 11 2 30 71 32
-0 87 27 12 69 54 5 13 23 3 26 32 39 118 164 117 59 39 20 7 -2 -18 -38 -37 -37 -34 -18 1 5 7 12 14 14 14 21 6 19 14 19 6 28 27 39 35 37 44 -1 16 11
34 21 47 30 49 36 -18 17 33 36 -4 41 66 84 173 136 79 51 30 13 -9 -14 -23 -29 -39 -32 -10 -6 4 5 11 11 13 8 7 13 22 4 9 7 1 29 8 8 11 6 -1 8 29
-23 29 47 57 45 -3 -37 -15 -12 33 41 88 97 98 118 98 73 28 14 3 -10 -10 -21 -22 -38 -27 -11 4 2 8 13 5 7 2 1 13 11 4 7 2 11 6 -8 -2 2 5 1 24 12
15 18 63 61 44 -28 -26 -7 4 31 81 92 113 125 91 99 73 29 9 2 -10 -14 -16 -22 -23 -26 -13 -5 6 5 6 4 7 1 -2 1 13 5 7 7 11 9 5 20 23 -8 23 19 6
-1 76 37 28 -4 -7 -15 -28 27 14 101 84 79 112 87 67 45 45 29 14 -0 -12 -21 -18 -20 -22 -14 -6 -8 -2 -2 2 -1 -1 -10 -3 4 8 -0 10 15 23 4 10 26 32 33 42 44
-73 54 72 8 1 -10 -10 -38 44 49 99 94 94 90 125 93 70 33 18 6 -3 -16 -19 -20 -26 -22 -18 -14 -16 -6 -5 -2 -4 -8 -11 -7 3 12 11 18 11 23 14 14 22 24 24 -1 33
36 25 17 52 38 33 -11 -37 64 88 59 86 97 115 104 126 44 32 15 5 -6 -15 -25 -21 -23 -19 -17 -16 -13 -11 -10 -2 -3 -5 -10 -17 -7 5 9 9 6 8 13 7 13 14 7 23 15
77 50 56 25 43 26 -14 -29 23 45 29 76 81 82 98 109 127 33 7 -3 -13 -25 -27 -27 -28 -21 -21 -29 -17 -16 -12 -6 -2 -2 -7 -15 -16 -0 5 10 5 12 10 10 14 19 8 4 -6
101 66 46 26 28 24 18 21 14 32 25 29 76 85 89 94 89 47 19 -10 -17 -27 -34 -30 -24 -26 -30 -21 -14 -8 6 4 8 4 6 -11 -3 -1 -2 11 28 15 10 4 -1 -4 16 15 -0
115 75 41 62 50 62 47 28 15 27 15 24 29 65 94 42 54 43 19 3 -6 -10 -22 -30 -24 -29 -25 -26 -15 -10 -0 4 5 2 -0 -0 -6 -3 -4 10 11 10 -10 -2 -13 -0 -6 7 10
40 10 45 76 52 40 51 4 12 18 12 9 33 31 46 29 54 103 34 16 7 -3 -8 -18 -23 -25 -27 -18 -33 -25 -17 7 -4 -3 -7 -13 1 10 5 4 -2 -2 -25 -16 -31 -11 7 12 40
6 26 77 88 94 65 28 25 -18 -4 -5 -3 17 55 35 20 19 28 82 34 28 17 -12 -20 -32 -27 -27 -18 -17 7 8 14 10 16 -0 -9 3 11 4 -3 -10 -24 -52 -43 -50 -23 6 29 59
5 65 48 56 58 58 63 50 19 3 -83 -37 13 55 22 27 25 33 126 156 68 23 -8 -21 -35 -32 -22 -18 -15 8 -8 -5 -8 -8 -5 8 8 7 13 8 -17 -51 -64 -59 -46 -35 9 27 35
37 80 91 68 92 28 18 -6 40 -40 -79 -41 -18 12 22 -1 22 26 38 80 66 29 5 -2 -12 -25 -17 -1 -4 1 9 -7 -8 7 9 7 18 39 32 20 -34 -74 -71 -65 -53 -31 -5 6 27
20 28 58 93 47 -24 50 8 -30 32 -15 -36 11 18 14 -2 -9 21 29 42 52 65 46 15 14 2 11 26 15 17 15 15 14 29 16 15 16 18 48 41 -19 -77 -65 -67 -61 -38 -22 2 15
26 6 140 80 89 -14 57 22 -22 -5 31 100 38 32 22 24 -1 9 57 64 66 96 124 146 110 67 65 52 55 57 55 18 8 20 3 24 15 24 17 33 -12 -53 -65 -71 -63 -59 -39 -14 2
80 -5 -34 143 134 105 16 -27 16 63 46 23 53 42 33 32 13 4 51 80 93 68 97 132 170 139 89 79 105 94 79 66 44 18 66 28 28 25 35 25 -6 -39 -53 -58 -59 -71 -46 -23 -10
93 43 44 -23 -33 -14 15 7 31 11 42 19 13 11 39 32 24 3 21 60 72 95 106 140 177 211 206 161 123 86 95 100 93 105 75 58 56 46 62 42 6 -25 -42 -50 -47 -68 -45 -20 -5
112 111 16 31 -15 -29 18 5 -28 16 28 -0 1 -18 -2 41 39 40 47 58 43 32 60 83 98 117 125 139 172 164 142 92 62 89 110 107 72 81 62 89 27 -10 -34 -33 -43 -53 -42 -11 6
63 105 100 147 -21 -35 54 15 60 5 -19 10 12 15 16 27 37 20 28 17 50 68 50 54 51 65 75 110 138 158 142 146 112 106 99 107 94 94 97 91 70 18 -9 -26 -34 -27 -30 -1 20